Powrót do katalogu

STARLINK-3965

AktywnyŁącznośćVLEO
NORAD 52550·PAYLOAD·🇺🇸 United States

Wystrzelony May 13, 2022 z Vandenberg Space Force Base

Loading…

Następne Przeloty (najbliższe 24 godziny)

TLE

ŚwieżeSource: CelesTrak SupGP

Epoka: Sep 14, 2026, 21:20 UTC

1 52550C 22051T   26257.88937500 -.00032034  00000+0 -94665-3 0  2572
2 52550  53.1579 347.6033 0001164  79.0894 312.7588 15.34400323    14

Śledź STARLINK-3965 w czasie rzeczywistym z AllMySat

Download on the App Store